This demonstration page uses our WeatherBlox Daily Observations layout. Learn more.

Left ArrowRight Arrow

Hourly Observations for April 17, 2017

Temp ( °F °C ) Dew Point ( °F °C ) Humidity (%) Winds ( mph kmh ) Pressure ( in mb ) Visibility ( mi km ) Precip ( " mm )
12:15 am 00:15 Clear 50 10 39 4 67 67 SW 6 9 30.15 1021 10 16 0.00 0.00
12:35 am 00:35 Clear 48 9 39 4 71 71 SSW 7 11 30.15 1021 10 16 0.00 0.00
12:55 am 00:55 Clear 46 8 39 4 76 76 S 7 11 30.15 1021 10 16 0.00 0.00
1:15 am 01:15 Clear 46 8 39 4 76 76 S 3 6 30.15 1021 10 16 0.00 0.00
1:35 am 01:35 Clear 46 8 39 4 76 76 S 6 9 30.18 1022 10 16 0.00 0.00
1:55 am 01:55 Mostly Clear 48 9 39 4 71 71 Calm 30.15 1021 10 16 0.00 0.00
2:15 am 02:15 Mostly Cloudy 48 9 39 4 71 71 S 8 13 30.15 1021 10 16 0.00 0.00
2:35 am 02:35 Partly Cloudy 48 9 41 5 76 76 S 5 7 30.15 1021 10 16 0.00 0.00
2:55 am 02:55 Mostly Cloudy 48 9 43 6 82 82 WSW 5 7 30.18 1022 10 16 0.00 0.00
3:15 am 03:15 Cloudy 50 10 43 6 76 76 SW 3 6 30.15 1021 10 16 0.00 0.00
3:35 am 03:35 Partly Cloudy 48 9 43 6 82 82 S 8 13 30.18 1022 10 16 0.00 0.00
3:55 am 03:55 Clear 46 8 41 5 82 82 S 6 9 30.18 1022 10 16 0.00 0.00
4:15 am 04:15 Mostly Clear 46 8 39 4 76 76 SW 3 6 30.21 1023 10 16 0.00 0.00
4:35 am 04:35 Mostly Clear 48 9 41 5 76 76 Calm 30.18 1022 10 16 0.00 0.00
4:55 am 04:55 Clear 46 8 41 5 82 82 Calm 30.18 1022 10 16 0.00 0.00
5:15 am 05:15 Clear 48 9 41 5 76 76 Calm 30.21 1023 10 16 0.00 0.00
5:35 am 05:35 Partly Cloudy 48 9 41 5 76 76 Calm 30.18 1022 10 16 0.00 0.00
5:55 am 05:55 Partly Cloudy 45 7 37 3 76 76 Calm 30.18 1022 10 16 0.00 0.00
6:15 am 06:15 Clear 45 7 39 4 81 81 Calm 30.18 1022 10 16 0.00 0.00
6:35 am 06:35 Clear 45 7 39 4 81 81 Calm 30.18 1022 10 16 0.00 0.00
6:55 am 06:55 Sunny 43 6 37 3 81 81 Calm 30.21 1023 10 16 0.00 0.00
7:15 am 07:15 Sunny 45 7 39 4 81 81 Calm 30.18 1022 10 16 0.00 0.00
7:35 am 07:35 Mostly Cloudy 45 7 41 5 87 87 Calm 30.21 1023 10 16 0.00 0.00
7:55 am 07:55 Cloudy 46 8 45 7 93 93 SSW 3 6 30.21 1023 10 16 0.00 0.00
8:15 am 08:15 Cloudy 50 10 45 7 82 82 S 5 7 30.18 1022 10 16 0.00 0.00
8:35 am 08:35 Partly Cloudy 54 12 46 8 77 77 S 3 6 30.18 1022 10 16 0.00 0.00
8:55 am 08:55 Mostly Sunny 55 13 46 8 72 72 S 3 6 30.18 1022 10 16 0.00 0.00
9:15 am 09:15 Sunny 57 14 46 8 67 67 S 3 6 30.12 1020 10 16 0.00 0.00
9:35 am 09:35 Sunny 59 15 45 7 59 59 S 3 6 30.12 1020 10 16 0.00 0.00
9:55 am 09:55 Mostly Sunny 61 16 45 7 55 55 SSW 6 9 30.12 1020 10 16 0.00 0.00
10:15 am 10:15 Mostly Sunny 63 17 45 7 52 52 S 8 13 30.09 1019 10 16 0.00 0.00
10:35 am 10:35 Sunny 63 17 43 6 49 49 SSE 10 17 30.09 1019 10 16 0.00 0.00
10:55 am 10:55 Sunny 64 18 45 7 49 49 SSW 6 9 30.09 1019 10 16 0.00 0.00
11:15 am 11:15 Sunny 64 18 45 7 49 49 S 12 19 30.09 1019 10 16 0.00 0.00
11:35 am 11:35 Sunny 66 19 45 7 46 46 SSE 8 13 30.09 1019 10 16 0.00 0.00
11:55 am 11:55 Sunny 66 19 45 7 46 46 S 16 26 30.09 1019 10 16 0.00 0.00
12:15 pm 12:15 Sunny 68 20 46 8 46 46 S 15 24 30.06 1018 10 16 0.00 0.00
12:35 pm 12:35 Sunny 70 21 46 8 43 43 SSW 12 19 30.03 1017 10 16 0.00 0.00
12:55 pm 12:55 Partly Cloudy 70 21 46 8 43 43 SSE 14 22 30.03 1017 10 16 0.00 0.00
1:15 pm 13:15 Partly Cloudy 70 21 46 8 43 43 SSE 13 20 30.03 1017 10 16 0.00 0.00
1:35 pm 13:35 Partly Cloudy 72 22 46 8 41 41 SE 16 26 30.00 1016 10 16 0.00 0.00
1:55 pm 13:55 Partly Cloudy 72 22 46 8 41 41 SSE 16 26 30.00 1016 10 16 0.00 0.00
2:15 pm 14:15 Partly Cloudy 72 22 46 8 41 41 S 13 20 30.00 1016 10 16 0.00 0.00
2:35 pm 14:35 Mostly Sunny 72 22 46 8 41 41 S 18 30 29.97 1015 10 16 0.00 0.00
2:55 pm 14:55 Mostly Sunny 72 22 46 8 41 41 SSE 15 24 29.97 1015 10 16 0.00 0.00
3:15 pm 15:15 Mostly Sunny 73 23 46 8 38 38 S 17 28 29.97 1015 10 16 0.00 0.00
3:35 pm 15:35 Partly Cloudy 73 23 46 8 38 38 SSE 20 31 29.94 1014 10 16 0.00 0.00
3:55 pm 15:55 Mostly Cloudy 72 22 46 8 41 41 SSE 18 30 29.94 1014 10 16 0.00 0.00
4:15 pm 16:15 Mostly Cloudy 72 22 45 7 38 38 S 21 33 29.94 1014 10 16 0.00 0.00
4:35 pm 16:35 Cloudy 73 23 46 8 38 38 SSE 21 33 29.91 1013 10 16 0.00 0.00
4:55 pm 16:55 Cloudy 72 22 46 8 41 41 SSE 18 30 29.91 1013 10 16 0.00 0.00
5:15 pm 17:15 Mostly Cloudy 72 22 46 8 41 41 SSE 20 31 29.91 1013 10 16 0.00 0.00
5:35 pm 17:35 Mostly Cloudy 72 22 45 7 38 38 S 18 30 29.91 1013 10 16 0.00 0.00
5:55 pm 17:55 Cloudy 70 21 46 8 43 43 S 23 37 29.91 1013 10 16 0.00 0.00
6:15 pm 18:15 Cloudy 70 21 46 8 43 43 S 17 28 29.91 1013 10 16 0.00 0.00
6:35 pm 18:35 Cloudy 70 21 46 8 43 43 S 18 30 29.91 1013 10 16 0.00 0.00
6:55 pm 18:55 Cloudy 70 21 46 8 43 43 S 18 30 29.91 1013 10 16 0.00 0.00
7:15 pm 19:15 Mostly Cloudy 68 20 46 8 46 46 S 13 20 29.91 1013 10 16 0.00 0.00
7:35 pm 19:35 Mostly Cloudy 66 19 46 8 49 49 SSE 18 30 29.91 1013 10 16 0.00 0.00
7:55 pm 19:55 Mostly Sunny 66 19 48 9 52 52 SSE 16 26 29.91 1013 10 16 0.00 0.00
8:15 pm 20:15 Mostly Sunny 66 19 48 9 52 52 SSE 14 22 29.91 1013 10 16 0.00 0.00
8:35 pm 20:35 Mostly Clear 64 18 48 9 56 56 SSE 13 20 29.91 1013 10 16 0.00 0.00
8:55 pm 20:55 Clear 64 18 48 9 56 56 SSE 13 20 29.91 1013 10 16 0.00 0.00
9:15 pm 21:15 Clear 63 17 48 9 59 59 SSE 10 17 29.91 1013 10 16 0.00 0.00
9:35 pm 21:35 Clear 63 17 48 9 59 59 SE 12 19 29.91 1013 10 16 0.00 0.00
9:55 pm 21:55 Clear 63 17 48 9 59 59 SSE 15 24 29.91 1013 10 16 0.00 0.00
10:15 pm 22:15 Clear 63 17 50 10 64 64 SSE 16 26 29.91 1013 10 16 0.00 0.00
10:35 pm 22:35 Clear 63 17 48 9 59 59 SSE 17 28 29.91 1013 10 16 0.00 0.00
10:55 pm 22:55 Clear 61 16 50 10 68 68 SSE 16 26 29.91 1013 10 16 0.00 0.00
11:15 pm 23:15 Clear 61 16 50 10 68 68 SSE 15 24 29.91 1013 10 16 0.00 0.00
11:35 pm 23:35 Clear 61 16 50 10 68 68 SSE 17 28 29.88 1012 10 16 0.00 0.00
11:55 pm 23:55 Clear 61 16 50 10 68 68 S 17 28 29.91 1013 10 16 0.00 0.00

Powered by AerisWeather